Home > Weather > Daytona Beach > Past weeks

Flag for USA Past Weather in Daytona Beach, Florida, USA — Yesterday and Last 2 Weeks

Now
92 °F

Passing clouds.


Feels Like: 104 °F
Forecast: 77 / 92 °F
Wind: 13 mph from Northeast

Location: Daytona Beach Regional Airport

Current Time: Jul 27, 2016 at 3:21:02 PM

Latest Report: Jul 27, 2016 at 2:53 PM


Visibility: 10 mi

Pressure: 30.06 "Hg

Humidity: 60%

Dew Point: 76 °F

Location of Daytona BeachLocation

Past Weather in Daytona Beach — Graph

°F

Daytona Beach Temperature Yesterday

Maximum temperature yesterday: 93 °F (at 12:53 PM)
Minimum temperature yesterday: 75 °F (at 4:53 AM)
Average temperature yesterday: 84 °F

High & Low Weather Summary for the Past Weeks

 TemperatureHumidityPressure
High95 °F (Jul 12, 1:53 PM)100% (Jul 18, 6:53 AM)30.24 "Hg (Jul 18, 6:53 AM)
Low72 °F (Jul 25, 6:53 AM)41% (Jul 24, 12:53 PM)29.99 "Hg (Jul 23, 5:53 PM)
Average83 °F75%30.10 "Hg
* Reported Jul 12 1:53 PM — Jul 27 1:53 PM, Daytona Beach, Weather by CustomWeather, © 2016

Note: Actual official high and low records may vary slightly from our data, if they occured in-between our weather recording intervals... More about our weather records

Advertising

Daytona Beach Weather History for the Previous 24 Hours

Scroll right to see more
 ConditionsComfort  
Time TempWeatherWind HumidityBarometerVisibility
1:53 PM
Wed, Jul 27
93 °FScattered clouds.12 mph58%30.08 "Hg10 mi
12:53 PM93 °FScattered clouds.9 mph56%30.09 "Hg10 mi
11:53 AM93 °FScattered clouds.7 mph54%30.11 "Hg10 mi
10:53 AM90 °FPassing clouds.3 mph59%30.10 "Hg10 mi
9:53 AM87 °FPassing clouds.3 mph65%30.10 "Hg10 mi
8:53 AM84 °FPassing clouds.No wind77%30.10 "Hg10 mi
7:53 AM79 °FPassing clouds.3 mph90%30.09 "Hg10 mi
6:53 AM77 °FPassing clouds.No wind94%30.08 "Hg10 mi
5:53 AM77 °FPassing clouds.5 mph94%30.06 "Hg10 mi
4:53 AM78 °FClear.No wind87%30.06 "Hg10 mi
3:53 AM79 °FClear.7 mph84%30.07 "Hg10 mi
2:53 AM80 °FPassing clouds.6 mph85%30.07 "Hg10 mi
1:53 AM80 °FPassing clouds.No wind85%30.08 "Hg10 mi
12:53 AM80 °FPassing clouds.3 mph81%30.09 "Hg10 mi
11:53 PM
Tue, Jul 26
82 °FPassing clouds.3 mph79%30.09 "Hg10 mi
10:53 PM83 °FPassing clouds.3 mph77%30.07 "Hg10 mi
9:53 PM84 °FPassing clouds.7 mph74%30.06 "Hg10 mi
8:53 PM85 °FPassing clouds.5 mph70%30.04 "Hg10 mi
7:53 PM86 °FPassing clouds.5 mph70%30.02 "Hg10 mi
6:53 PM89 °FPassing clouds.9 mph57%30.01 "Hg10 mi
5:53 PM91 °FPassing clouds.12 mph50%30.02 "Hg10 mi
4:53 PM91 °FPassing clouds.12 mph57%30.03 "Hg10 mi
3:53 PM91 °FScattered clouds.13 mph57%30.04 "Hg10 mi
Weather by CustomWeather, © 2016

See weather overviewHow to use our weather pages